Timeline UpdatesTrip UpdatesNews PostsPvt PostsTravel TipsAdmin PostsConv PostsFollowed PostsChat RequestsBlog PostsPNR Posts

Disclaimer
Search
 
 
Fri Aug 1, 2014 03:09:09 ISTHomeTrainsΣChainsAtlasPNRForumGalleryNewsFAQTripsMembersLoginFeedback
No Recent News for this Train
Other Trains in the News **new
Latest...
.
Thu Feb 21, 2013 (12:59PM)
⇐ Return Journey: Train# 15904

15903/Dibrugarh-Chandigarh Weekly Express

Feb 13 2014 (5:05PM)
Change Departure Station:
Change Arrival Station:
Post a Train Travel TipPost a Train Travel Tip **new
Post a Comment/Question/Picture/VideoPost a Comment/Question/Picture/Video
Pantry/Catering
✓ Pantry Car Avbl
✓ Catering Avbl
RSA - Rake Sharing
.
Rake/Coach Composition
LOCO-SLR-GS-GS-S1-S2-S3-S4-S5-S6-S7-S8-S9-S10-S11-S12-S13-PC-A1-B1-B2-B3-B4-GS-SLR
Loco
NGC WDM3a
News    PNR    Forum    Time-Table    Availability    Fare Chart    Map    Arr/Dep History    Trips    Gallery    ΣChains    X/O    Timeline    
Travel Time: 12h 10m    8 halts    Distance: 605 km    Avg Speed: 49 km/hr
Type: Mail/Express
Zone: NFR/Northeast Frontier
Departs @ 08:40 (Avg 4m late)
Platform# ???
 M     
Dibrugarh/DBRG 
Arrives @ 20:50 (Avg 52m late)
Platform# ???
 M     
Rangiya Junction/RNY 

8 halts. 87 intermediate Stations between Dibrugarh and Rangiya Junction

Hide intermediate Stations  Show Old Time-Table

#CodeStation NameX/OArrivesAvgDepartsAvgHaltPFDay#KmSpeedElevZoneAddress
1DBRG»Dibrugarh (4)»  -08:40+4--10.039108mNFRDibrugarh 786003, Assam
1.1LHLLahoal  08:51-08:51-  16.9 39112mNFRA T Rd, Assam
1.2DKMDikomX  09:03-09:03-  115.1 39115mNFRA T Rd, Assam
1.3CHBChabua (1)  09:18-09:18-  124.7 39116mNFRChabua, Assam
1.4PNTPanitola  09:32-09:32-  133.8 39122mNFRA T Rd, Assam
2NTSKNew Tinsukia Junction (3)  09:45+609:55+1310m--142.070124mNFRDist: Tinsukia, Assam
2.1SPGNSripuriagaon  09:58-09:58-  145.9 70120mNFRSripuria Junction, Assam
2.2CGFCharali  10:04-10:04-  152.0 70125mNFRMadhubon to Naoholia Rd, Assam
2.3BDTBordubi Road  10:06-10:06-  154.5 70123mNFRMadhubon to Naoholia Rd, Assam
2.4DJGDuliajan  10:09-10:09-  158.3 70123mNFRDuliajan, Assam
2.5NHKNaharkatiyaX  10:17-10:17-  167.6 70121mNFRNaharkatiya, Assam
2.6BTZBalimara  10:22-10:22-  173.4 70122mNFRBalimara, Assam
2.7NAMNamrup (2)  10:26-10:26-  178.5 70123mNFRBorhat, Assam
2.8BFDBorhat  10:31-10:31-  183.8 70118mNFRNahar Rd, Assam
2.9BRNRBaruanagar  10:35-10:35-  188.8 70115mNFRDeopani Habi, Assam
2.10SPKSapekhati  10:42-10:42-  196.7 70112mNFRMoran to Naharkatiya Rd, Assam
2.11LPTALongpatia  10:48-10:48-  1104.0 70109mNFRLongpatia, Assam
2.12BOJBhojo  10:54-10:54-  1110.6 70107mNFRBhojo Railway Station, Assam
2.13SFRSafrai  11:03-11:03-  1120.7 70101mNFRBarpothar, Assam
2.14LXALakswa  11:11-11:11-  1131.0 7098mNFRKukurachowa Gaon Rd, Assam
2.15MUGNMahutgaon  11:17-11:17-  1138.0 7099mNFRLakwa Rajgarh Road, Assam
3SLGRSimaluguri Junction (3)  11:23+1711:25+172m11144.55499mNFRSimaluguri, Assam
3.1NZRNazira  11:29-11:29-  1148.2 5496mNFRNazira, Assam
3.2MZAMezenga  11:34-11:34-  1152.6 5499mNFRReboti Gaon, Assam
3.3NMTNamtiali  11:41-11:41-  1159.1 5498mNFRDhodor Ali, Assam
3.4AGIAmguri Junction (2)O  11:54-11:54-  1170.6 54104mNFRAmguri, Assam
3.5SLXSelenghatX  12:00-12:00-  1175.9 54104mNFRSelenghat, Assam
3.6LHLahing  12:07-12:07-  1182.5 54109mNFRLahing, Assam
3.7NCHNakachari (2)  12:13-12:13-  1188.2 54115mNFRNakachari, Assam
3.8MEGMeleng  12:19-12:19-  1193.0 54121mNFRmariani, Assam
4MXNMariani Junction (4)X  12:25+2412:35+2410m11198.742117mNFRDist. Jorhat Pin-785634, Assam
4.1KQYKharikatiaX  12:44-12:44-  1204.6 42107mNFRDhodar Ali, Assam
4.2TTBTitabar (1)  12:53-12:53-  1211.1 4298mNFRTitabor, Assam
4.3CFGChakiting  13:09-13:09-  1222.4 4297mNFRChakiting, Assam
4.4KXLKamarbandha Ali  13:17-13:17-  1227.7 4299mNFRK B Rd, Assam
5FKGFurkating Junction (2)  13:30+613:32+92m--1236.767 NFRK B Rd, Assam
5.1OTNOatingX  13:36-13:36-  1240.9 67112mNFRTirual Gaon, Assam
5.2JMIJamguri  13:41-13:41-  1246.4 67104mNFROating Grant, Assam
5.3BHGNBhilgaon (1)  13:47-13:47-  1253.2 67113mNFRAsian Highway 1, Assam
5.4BXPBarpathar  13:54-13:54-  1261.0 67115mNFRRailway Station, Assam
5.5SZRSarupathar (2)  14:02-14:02-  1270.6 67123mNFRSarupathar Road Thana Rd, Assam
5.6NJNNaojan (1)  14:10-14:10-  1279.0 67128mNFRNo.1 Kori Gaon, Assam
5.7CJAChongajan  14:17-14:17-  1286.6 67133mNFRNaojan Crossing Gate Road, Assam
5.8BXJBokajan (2)  14:22-14:22-  1292.7 67138mNFRBokajan, Assam
5.9KHKTKhotkhoti  14:30-14:30-  1301.0 67145mNFRKhotkhoti Railway Station, Assam
6DMVDimapur (3)  14:35+2014:40+205m--1306.962153mNFRDimapur, Nagaland
6.1RXRXRangapahar Crossing  14:44-14:44-  1311.2 62152mNFRArmy Supply Road, Nagaland
6.2RXRRangapahar  14:46-14:46-  1313.2 62159mNFRRangapahar, Nagaland
6.3DSRDhansiri  14:58-14:58-  1325.5 62179mNFRDhansiri, Assam
6.4DLDEDaldali  15:06-15:06-  1334.1 62194mNFRDiphu, Assam
7DPUDiphu (2)  15:16+2315:17+241m--1344.240180mNFRDiphu, Assam
7.1NLNNailalung  15:31-15:31-  1353.4 40222mNFRTV Centre Road, Assam
7.2LCTLangcholiet  15:45-15:45-  1363.0 40165mNFRTV Centre Road, Assam
7.3BRLFBar Langfer  15:55-15:55-  1369.6 40154mNFRDist: Karbi Anglong, Assam
8LMGLumding Junction (5)X  16:05+1716:15+2010m--1376.352142mNFRLumding, Assam
8.1LMGSLumding South  16:17-16:17-  1378.0 52133mNFRLumding South, Assam
8.2PKBPatharkhola S  16:25-16:25-  1384.9 52124mNFRNH54, Assam
8.3LKGLamsakhang  16:32-16:32-  1390.9 52106mNFRLamsakhan Rd, Assam
8.4HWXHabaipur  16:44-16:44-  1401.5 5293mNFRStation Rd, Assam
8.5LKALankaX  16:51-16:51-  1407.5 5289mNFRLanka, Assam
8.6DHRYDhalpukhuri  17:00-17:00-  1414.8 5284mNFRHojai Rd, Assam
8.7HJIHojai (2)  17:07-17:07-  1421.5 5278mNFRHojai Rd. Ph:- 03674-252136., Assam
8.8JGJNJugijanX  17:15-17:15-  1428.0 5273mNFRNational Highway 36, Assam
8.9JMKJamunamukh  17:27-17:27-  1438.0 5270mNFRNational Highway 36, Assam
8.10KWMKampur  17:39-17:39-  1448.8 5268mNFRKampur, Assam
8.11LPNLaopaniX  17:49-17:49-  1457.2 5263mNFRNiz-Jarabari, Assam
8.12CPKChaparmukh Junction (3)X  17:59-17:59-  1466.0 5265mNFRChaparmukh. Dist. Nagaon. Changing point for HBN/SHTT, Assam
8.13TGEThekeraguri  18:08-18:08-  1474.0 5262mNFRMorakolong, Assam
8.14DMLDharamtul  18:17-18:17-  1481.3 5259mNFRDharamtul, Assam
8.15SNBRSonuabary  18:24-18:24-  1487.2 5257mNFRBhalukaguri, Assam
8.16AJREAujari  18:30-18:30-  1492.5 52 NFRJagiroad, Assam
8.17JIDJagi Road (2)X  18:39-18:39-  1500.0 5262mNFRJagiroad, Assam
8.18BRHUBarahu  18:46-18:46-  1505.9 5259mNFRGuripathar, Assam
8.19KKETKamrup Khetri  18:52-18:52-  1511.8 5262mNFRKhetri, Assam
8.20TTLATeteliaX  18:59-18:59-  1517.9 5259mNFRHelagog, Assam
8.21PNBPanbari (2)  19:14-19:14-  1530.7 5258mNFRBurha Mayang Par, Assam
8.22DGUDigaru  19:21-19:21-  1536.3 5258mNFRDigaru, Assam
8.23TKCThakurkuchi (2)  19:23-19:23-  1537.9 5254mNFRHatisila, Assam
8.24PHIPanikhaiti (2)XO  19:29-19:29-  1543.2 5259mNFRChandrapur Rd, Assam
8.25NNGENarangi (2)  19:35-19:35-  1548.6 5258mNFRPanikhaiti, Assam
8.26NMYNoonmati  19:38-19:38-  1551.4 5261mNFRGuwahati, Assam
8.27NGCNew Guwahati  19:40-19:40-  1552.9 5261mNFRGuwahati, Assam
9GHYGuwahati (7)  19:45+2420:00+3315m--1557.15760mNFRGuwahati, Assam
9.1KYQKamakhya Junction (4)  20:07-20:07-  1564.0 5755mNFRDist - KAMRUP, Assam
9.2AGTAgthoriX  20:14-20:14-  1570.9 5750mNFRGuwahati, Assam
9.3CGSChangsari  20:23-20:23-  1578.9 5754mNFRChangsari, Assam
9.4BIZBaihata  20:34-20:34-  1589.3 5756mNFRKamrup, Assam
9.5KDKNKendukana  20:39-20:39-  1594.7 5755mNFRNational HIghway 31, Assam
10RNY•Rangiya Junction (5)•  20:50+5221:00+4810m--1604.74758mNFRRangia, Assam
10.1GOEGhograpur  21:10-21:10-  1612.5 4755mNFRNational HIghway 31, Assam
10.2NLVNalbari  21:21-21:21-  1621.2 4754mNFRNalbari, Assam
10.3KTCHKaithalkuchi  21:34-21:34-  1631.3 4750mNFRNational HIghway 31, Assam
10.4TIHUTihu  21:44-21:44-  1638.8 4750mNFRBarpeta, Assam
10.5NSRHNiz Sariha Halt  21:50-21:50-  1643.7 4749mNFRBarpeta, Assam
10.6PBLPathsala  21:56-21:56-  1648.3 4747mNFRPathsala Town, Assam
10.7SPQSorupeta  22:09-22:09-  1658.4 4747mNFRBarpeta, Assam
10.8GSAGuagachha  22:16-22:16-  1664.2 4745mNFRBorpeta, Assam
10.9BPRDBarpeta Road  22:23-22:23-  1669.6 4749mNFRHowli, Assam
10.10SBESorbhog Junction  22:33-22:33-  1677.4 4751mNFRDist: Barpeta, Assam
10.11PTLDPatiladaha  22:45-22:45-  1686.3 4749mNFRNational HIghway 31, Assam
10.12BJFBijni  22:58-22:58-  1696.5 4754mNFRDist: Chirang, Assam
10.13CPQChaprakata  23:10-23:10-  1706.0 4756mNFRNational Highway 31C, Assam
10.14BNGNBongaigaon (3)  23:17-23:17-  1711.2 4760mNFRBongaigaon, Assam
11NBQNew Bongaigaon Junction (4)X  23:20+1023:30+1010m--1713.76258mNFR783381., Assam
11.1NBQYNew Bongaigaon Yard  23:33-23:33-  1717.0 6258mNFRBongaigaon, Assam
11.2DTXDangtal  23:34-23:34-  1718.0 6256mNFRNational Highway 31C, Assam
11.3BSGNBasugaon (2)  23:42-23:42-  1725.5 6255mNFRNational Highway 31C, Assam
11.4SLKXSalakatiX  23:48-23:48-  1732.1 6253mNFRNational Highway 31C, Assam
12KOJKokrajhar (3)  23:57+1823:58+201m--1741.58646mNFR03661-270618, Assam
12.1FKMFakiragram Junction (4)  00:05-00:05-  2751.4 8644mNFR03661-283454, Assam
12.2CROAChautaraX  00:13-00:13-  2762.6 8644mNFRChautara, Assam
12.3GOGHGossaigaon Hat (3)  00:21-00:21-  2774.7 86 NFRKokrajhar, Assam
12.4SRPBSrirampur Assam (2)  00:26-00:26-  2782.0 8650mNFRDist - Dhubri, Assam
12.5JOQJorai (3)X  00:33-00:33-  2792.0 8653mNFRDist - Coachbehar, West Bengal
12.6KAMGKamakhyaguri (3)  00:39-00:39-  2800.2 8653mNFRdist : Alipurduar, West Bengal
12.7SMTASamuktala Road (3)X  00:46-00:46-  2809.8 8648mNFRdist : Alipurduar, West Bengal
12.8SLBSSalsala Bari  00:49-00:49-  2815.2 8650mNFRDist : ALIPURDUAR, West Bengal
13NOQNew Alipurduar (2)  00:53+2600:58+265m--2820.34148mNFRDist - Alipurduar - 736121, West Bengal
13.1NBSNew Baneswar (2)  01:14-01:14-  2831.3 4144mNFRDist - Coachbehar, West Bengal
14NCBNew Cooch Behar Junction (5)  01:25+2301:30+225m--2839.05847mNFRDist : Cooch Behar-736101, West Bengal
14.1PQZPundibari (1)  01:40-01:40-  2849.1 5853mNFRDist - Coochbehar, West Bengal
14.2SJRRSajherpar (2)  01:45-01:45-  2853.6 5854mNFRDist : Cooch Behar, West Bengal
14.3GDXGhoksadanga (2)  01:53-01:53-  2861.1 5858mNFRDist : Cooch Behar, West Bengal
14.4GUZGumanihat (2)  01:58-01:58-  2866.4 5860mNFRDist : Cooch Behar, West Bengal
14.5GMZGumanihat (2)  01:58-01:58-  2866.4 5860mNFRDist : Coachbehar, West Bengal
14.6FLKFalakata (3)  02:09-02:09-  2876.8 5867mNFRDist - Alipurduar, West Bengal
14.7SXXSalbari (2)  02:18-02:18-  2885.8 5869mNFRDist - jalpaiguri, West Bengal
14.8KLGRKolai Gram (2)  02:25-02:25-  2892.4 5875mNFRDist : Jalpaiguri, West Bengal
14.9DQGDhupguri (2)  02:32-02:32-  2899.2 5875mNFRDist - Jalpaiguri, West Bengal
14.10ATMAltagram (2)  02:39-02:39-  2905.9 5885mNFRDist - Jalpaiguri, West Bengal
14.11BYXABetgara (2)X  02:48-02:48-  2914.6 5889mNFRDIST - Jalpaiguri, West Bengal
14.12NMXNew Maynaguri (2)  02:53-02:53-  2919.5 5886mNFRDist - Jalpaiguri, West Bengal
14.13NQHNew Domohani (2)  02:57-02:57-  2923.3 5884mNFRDist - Jalpaiguri, West Bengal
14.14JPEJalpaiguri Road (2)  03:05-03:05-  2931.0 5889mNFRdist - Jalpaiguri 735102, West Bengal
14.15RQJRaninagar Jalpaiguri Junction (3)X  03:13-03:13-  2938.1 5891mNFRDIST - Jalpaiguri, West Bengal
14.16BLKBelakoba (2)  03:21-03:21-  2946.4 5899mNFRDist - jalpaiguri, West Bengal
14.17ABFCAmbari Falakata (2)  03:31-03:31-  2955.8 58105mNFRdist - jalpaiguri 735201, West Bengal
15NJPNew Jalpaiguri Junction (8)  03:40+2003:55+2315m32964.579114mNFRCity-Siliguri . Dist-Jalpaiguri, West Bengal
15.1RNIRangapani (2)  04:01-04:01-  2971.9 79114mNFRSILIGURI Dist - Darjeeling, West Bengal
15.2NJBNijbariX  04:06-04:06-  2978.8 79104mNFRFulbari Ghoshpukur Bypass, West Bengal
15.3CATChattar Hat (2)  04:11-04:11-  2985.9 7991mNFRChattar, West Bengal
15.4DMZDumdangi  04:18-04:18-  2995.0 7986mNFRHaftia Rd, West Bengal
15.5TMHTin Mile Hat  04:25-04:25-  21003.9 7974mNFRTin Mile, West Bengal
15.6MXJMangurjan  04:29-04:29-  21010.0 7969mNFRMangurjan, West Bengal
15.7DBQDhulabari  04:34-04:34-  21016.4 7968mNFRKishanganj, Bihar
15.8AUBAluabari Road (2)X  04:38-04:38-  21021.2 790mNFRDist - uttar Dinajpur, West Bengal
15.9GEORGunjaria  04:44-04:44-  21029.2 7964mNFRNational Highway 31, West Bengal
15.10GILGaisal (3)  04:48-04:48-  21034.9 7962mNFRNational Highway 31, West Bengal
15.11PJPPanjipara (3)X  04:55-04:55-  21043.6 7955mNFRNational Highway 31, West Bengal
16KNEKishanGanj (3)  05:01+3905:03+402m--21051.84252mNFRKishanganj, Bihar
16.1THEDTauheed  05:06-05:06-  21054.0 4252mNFRKishanganj, West Bengal
16.2HWRHatwar (2)  05:15-05:15-  21060.2 4246mNFRNational Highway 31, West Bengal
16.3KKAKanki (3)X  05:23-05:23-  21065.7 4247mNFRKanki, West Bengal
16.4SJKLSurja Kamal (2)  05:34-05:34-  21073.3 4244mNFRNational Highway 31, West Bengal
16.5DLKDalkhola (3)X  05:44-05:44-  21080.3 4244mNFRDalkola, West Bengal
16.6TETATelta (2)  05:55-05:55-  21088.5 4240mNFRRupauli, Bihar
16.7AHLAjharailX  05:59-05:59-  21091.3 4237mNFRNational Highway 34, West Bengal
16.8SUDSudhani (2)  06:08-06:08-  21097.5 4238mNFRState Highway 65, Bihar
16.9SJGMSanjay Gram  06:13-06:13-  21100.9 4234mNFRSanjay Gram, West Bengal
16.10BOEBarsoi Junction (3)  06:25-06:25-  21109.4 4237mNFRdist- katihar, Bihar
16.11MFAMukuria Junction (2)X  06:31-06:31-  21113.7 4232mNFRMukuria, Bihar
16.12SRISalmari (2)  06:39-06:39-  21118.9 4236mNFRSalmari, Bihar
16.13MENPMeenapur (1)X  06:44-06:44-  21122.5 4238mNFRMeenapur, Bihar
16.14JAUJhaua (1)  06:48-06:48-  21125.2 4235mNFRJhaua, Bihar
16.15BHNPBishanpur Halt (1)X  06:52-06:52-  21128.2 4234mNFRKATIHAR, Bihar
16.16SISonalli (2)  06:56-06:56-  21131.3 4235mNFRSonalli, Bihar
16.17GRRGorphar (1)  07:03-07:03-  21136.4 4234mNFRGorphar Halt, Bihar
16.18DNQDandkhora (2)  07:08-07:08-  21139.6 4234mNFRph- 06452-252274, Bihar
16.19NYTNayatola (1)  07:14-07:14-  21143.8 4234mNFRKatihar, Bihar
17KIRKatihar Junction (7)XO  07:20+2207:30+2510m221148.05835mNFRKatihar 854105, Bihar
17.1SMOSemapur  07:42-07:42-  21159.6 5835mECRKatihar, Bihar
17.2CRRKaragola Road  07:53-07:53-  21170.3 5836mECRLachhmipur, Bihar
17.3BRZRBarari Bazar  07:56-07:56-  21173.1 5834mECRMarghia, Bihar
17.4BKHRBakhri  07:59-07:59-  21175.8 5835mECRBakhri, Bihar
17.5KUEKurselaX  08:11-08:11-  21187.3 5831mECRNH 31, Bihar
17.6KTRHKatareahX  08:19-08:19-  21194.8 580mECRKumadpur, Bihar
18NNANaugachia  08:30+4208:31+431m--21205.85737mECRBhagalpur, Bihar
18.1KHQKharik  08:39-08:39-  21213.7 5738mECRKharik, Bihar
18.2BIGHBagrigram Halt  08:43-08:43-  21216.8 5738mECRBagri, Bihar
18.3THBThana Bihpur Junction  08:48-08:48-  21221.7 5739mECRThana Bihpur, Bihar
18.4NNRNarayanpur  08:56-08:56-  21229.3 5739mECRNarayanpur, Bihar
18.5BRKBBharat Khand  09:01-09:01-  21234.7 5734mECRBharat Khand, Bihar
18.6BRKDBharat Khand  09:01-09:01-  21234.8 5735mECRNational Highway 31, Bihar
18.7PSRPasrahaX  09:08-09:08-  21240.9 5741mECRPasraha, Bihar
18.8GAIGauchhari  09:16-09:16-  21249.3 5740mECRGauchhari, Bihar
18.9MSKMahes Khunt  09:21-09:21-  21253.3 5737mECRMaheshkhunt, Bihar
18.10CDBNChedhabanni Halt  09:27-09:27-  21258.9 5742mECRChedhabanni, Bihar
18.11MNEMansi Junction (3)  09:32-09:32-  21263.7 5743mECRMansi, Bihar
19KGGKhagaria Junction (3)X  09:41+5209:42+541m--21272.74943mECRKhagaria, Bihar
19.1UMNRUmeshnagar  09:50-09:50-  21279.6 4941mECRNational Highway 31, Bihar
19.2SKJSahibpur Kamal Junction (2)X  09:57-09:57-  21285.1 4941mECRShahpur Kamal, Bihar
19.3SANHSanha HaltX  10:02-10:02-  21288.6 4942mECRSanha, Bihar
19.4LKNLakhminia  10:09-10:09-  21294.8 4945mECRBegusarai, Bihar
19.5DPLDanauli Phulwaria  10:16-10:16-  21300.1 4942mECRDanauli Phlwria, Bihar
19.6LAKLakho  10:22-10:22-  21305.2 4944mECRLakho, Bihar
19.7BGSBegu Sarai (3)  10:31-10:31-  21312.6 49 ECRBegusarai, Bihar
19.8SHHTSinghaul Halt  10:36-10:36-  21316.4 4948mECRBegusarai, Bihar
19.9TILTilrath (2)X  10:40-10:40-  21319.4 4946mECRNH 31, Bihar
19.10BEHTBihat Halt (2)  10:44-10:44-  21323.2 4946mECRBihat Halt, Bihar
20BJUBarauni Junction (9)X  10:50+1:0311:00+1:0410m--21327.95549mECRBegusarai, Bihar
20.1TGATeghra (3)X  11:08-11:08-  21335.3 5548mECRBegusarai, Bihar
20.2BCABachwara Junction  11:18-11:18-  21344.3 5549mECRBegusarai, Bihar
20.3STJTSathajagat  11:25-11:25-  21350.8 5549mECRSathajagat, Bihar
20.4DSSDalsingh Sarai (2)  11:30-11:30-  21355.3 5549mECR06278-221238, Bihar
20.5BSRABasarhia Halt  11:34-11:34-  21359.5 5552mECRBasaria, Bihar
20.6NAZJNazirGanj  11:38-11:38-  21363.2 5551mECRNazirGanj, Bihar
20.7UJPUjiarpur (2)  11:45-11:45-  21369.5 5551mECRSamastipur, Bihar
20.8BLRIBelari Halt  11:50-11:50-  21373.9 5551mECRMalti, Bihar
21SPJSamastipur Junction (9)X  11:55+4912:00+495m--21378.56555mECRSamastipur, Bihar
21.1KPGMKarpurigram (3)  12:06-12:06-  21384.8 6551mECRState Highway 49, Bihar
21.2KRBPKhudiram B Pusa  12:13-12:13-  21392.1 6552mECRDistt. Samastipur, Bihar
21.3VBHVishnupur Bathua Halt  12:16-12:16-  21395.9 6555mECRTajpur - Garhia - Pusa Road, Bihar
21.4DUBHDubaha  12:19-12:19-  21399.4 6555mECRDubha Station, Bihar
21.5DOLDholi (2)  12:25-12:25-  21405.5 6552mECRDistt. Muzaffarpur, Bihar
21.6SIHOSiho  12:31-12:31-  21412.3 6553mECRNational Highway 28, Bihar
21.7SLTSilaut  12:38-12:38-  21420.1 6557mECRMuzaffarpur, Bihar
21.8NRPANarayanpur Anant (3)  12:44-12:44-  21425.8 6556mECRMuzaffarpur, Bihar
22MFPMuzaffarpur Junction (6)X  12:48+1:0412:53+1:075m321430.65857mECRMuzaffarpur, Bihar
22.1RDRam Dayalu Nagar (3)  12:59-12:59-  21436.7 5856mECRMuzaffarpur, Bihar
22.2TURTurki (2)  13:07-13:07-  21444.4 5855mECRTurki, Bihar
22.3KHIKurhani (2)  13:14-13:14-  21450.7 5856mECRKurhani, Bihar
22.4GRLGoraul (2)  13:20-13:20-  21456.5 5857mECRVAISHALI, Bihar
22.5BNPTBenipatti Pirapur (1)X  13:22-13:22-  21458.4 5855mECRGhojaul Rd, Bihar
22.6BNRBhagwanpur (2)  13:29-13:29-  21464.8 5860mECRBhagwanpur, Bihar
22.7BTHLBithauli (1)XO  13:33-13:33-  21469.5 5858mECRVaishali, Bihar
22.8SAISarai (1)  13:38-13:38-  21473.8 5854mECRVaishali, Bihar
22.9GWHGhoshawar (1)  13:44-13:44-  21479.9 5854mECRDaulatpur Deoria urf Daulatpur, Bihar
23HJPHajipur Junction (3)X  13:49+2:0313:50+2:251m--21484.53355mECR06224-272230, Bihar
24SEESonpur Junction (4)X  14:00+2:5514:05+2:535m--21490.03856mECRSaran, Bihar
24.1PMUParmanandpur (2)  14:15-14:15-  21496.6 3856mECRNational Highway 19, Bihar
24.2NYONayagaon (2)X  14:23-14:23-  21501.3 3853mECRNayagaon Sarai, Bihar
24.3STLRSitalpur (2)  14:35-14:35-  21508.9 3857mECRSitalpur, Bihar
24.4DGADighwara (2)X  14:41-14:41-  21513.1 3860mECR06158-281240, Bihar
24.5AABHAmbika Bhawani Halt (1)  14:48-14:48-  21517.0 3859mECRNH 19, Bihar
24.6ATNRAwatarnagar (2)  14:51-14:51-  21519.0 3856mECRNH 19, Bihar
24.7PPDAPanchpatia Deoria Halt (1)  14:54-14:54-  21521.1 3857mECRNH 19, Bihar
24.8BAGLBaragopal (2)  14:58-14:58-  21523.9 3857mECRSH 46, Bihar
24.9DRIDumri Juara (2)  15:05-15:05-  21528.0 3857mECRSaran, Bihar
24.10GJHGoldinganj (2)X  15:12-15:12-  21532.8 3858mECRChapra Patna Highway, Bihar
24.11CIChhapra Kacheri (3)  15:27-15:27-  21541.8 3857mNERChhapra, Bihar
25CPRChhapra Junction (6)  15:30+3:1915:45+3:1415m--21544.08258mNERDistt: Saran, Bihar
25.1TKVRTeknewas (2)  15:48-15:48-  21548.4 8258mNERSaran, Bihar
25.2KPSKopa Samhota (2)  15:53-15:53-  21554.7 8269mNERKopa Samhota Station Rd, Bihar
25.3DDPDaudpur (2)  15:59-15:59-  21563.3 8259mNERChhapra, Bihar
25.4EKMAEkma (3)X  16:06-16:06-  21571.9 8264mNERSaran, Bihar
25.5MHRNMahendranath Halt (2)  16:09-16:09-  21577.3 8263mNERMahendrana, Uttar Pradesh
25.6CWChainwa (2)X  16:11-16:11-  21579.3 8263mNERSiwan, Bihar
25.7DDADuraundha Junction (3)  16:17-16:17-  21587.4 8264mNERDistt: Siwan, Bihar
25.8PCKPachrukhi (2)  16:24-16:24-  21596.9 8267mNERPachrukhi, Bihar
26SVSiwan Junction (4)  16:30+3:2516:35+3:255m--21605.25670mNERSiwan, Bihar
26.1ZRDEJiradei (2)  16:46-16:46-  21615.6 5669mNERSiwan, Bihar
26.2KYWKarchhue  16:52-16:52-  21621.0 5670mNERState Highway 47, Bihar
26.3MWMairwa (2)  16:58-16:58-  21626.5 5673mNERMairwa, Bihar
26.4BTKBankata (2)  17:05-17:05-  21633.0 5673mNERDeoria, Uttar Pradesh
26.5BHTRBhatpar Rani (2)X  17:13-17:13-  21641.1 5673mNERDeoria, Uttar Pradesh
26.6NNPRNonapar  17:22-17:22-  21649.2 5676mNERSalempur Mairwa Rd, Uttar Pradesh
26.7BTTBhatni Junction (5)X  17:27-17:27-  21653.9 5673mNERDeoria, Uttar Pradesh
26.8NRANunkhar (2)  17:35-17:35-  21661.3 5675mNERBaikunthpur, Uttar Pradesh
26.9AHLRAhalyapur  17:42-17:42-  21668.6 5681mNERDeoria, Uttar Pradesh
27DEOSDeoria Sadar (3)  17:49+3:2417:50+3:291m--21674.72979mNERDeoria- 274001, Uttar Pradesh
27.1BALRBaitalpur (2)X  18:03-18:03-  21681.3 2982mNERPin- 274201, Uttar Pradesh
27.2GBGauri Bazar (2)  18:21-18:21-  21689.8 2982mNERDistrict Deoria- Pincode- 274202, Uttar Pradesh
27.3CCChauri Chaura (2)  18:40-18:40-  21699.5 2984mNERGorakhpur- PinCode:- 273201, Uttar Pradesh
27.4SANRSardarnagarX  18:51-18:51-  21704.7 2982mNERGorakhpur-Deoria Road, Uttar Pradesh
27.5KHMKusmhi (2)  19:03-19:03-  21710.7 2983mNERGorakhpur, Uttar Pradesh
27.6GKCGorakhpur Cantt. (3)  19:22-19:22-  21720.1 2985mNERGorakhpur-273001, Uttar Pradesh
28GKPGorakhpur Junction (10)  19:30+2:2919:45+2:3015m121723.84484mNERGorakhpur 273001, Uttar Pradesh
28.1DMGDomingarh (2)X  19:51-19:51-  21727.9 4480mNERGorakhpur- 273004, Uttar Pradesh
28.2JTBJagatbela (2)  20:00-20:00-  21734.6 4478mNERDistt Gorakhpur- 273015, Uttar Pradesh
28.3SWASahjanwa (2)  20:08-20:08-  21741.0 4480mNERGorakhpur - 273209, Uttar Pradesh
28.4SIPRSihapar Halt (2)X  20:15-20:15-  21746.0 4480mNERGorakhpur, Uttar Pradesh
28.5MHHMaghar (3)  20:19-20:19-  21749.3 4483mNERNH 28. Distt- SantKabirNagar- 272173, Uttar Pradesh
28.6KLDKhalilabad (3)X  20:31-20:31-  21757.8 4486mNERKhalilabad- 272175, Uttar Pradesh
28.7CRVChureb (2)  20:41-20:41-  21765.6 4488mNERDistrict- Khalilabad, Uttar Pradesh
28.8MNDMunderwa (2)O  20:51-20:51-  21773.0 4489mNERNational Highway 28, Uttar Pradesh
28.9ORWOrwara (2)  21:00-21:00-  21779.7 4491mNERDistrict- BASTI, Uttar Pradesh
28.10BSTBasti (4)  21:11-21:11-  21787.3 4490mNERBasti 272001, Uttar Pradesh
28.11GOVRGovindnagar (2)  21:19-21:19-  21793.7 4493mNERPin-272002, Uttar Pradesh
28.12THTinich (2)X  21:31-21:31-  21802.0 4495mNERDistrict- Basti, Uttar Pradesh
28.13GAURGaur (2)  21:42-21:42-  21810.2 4496mNERDistrict-Basti, Uttar Pradesh
28.14BVBabhnan (2)  21:52-21:52-  21818.1 44101mNERDistrict- Basti, Uttar Pradesh
28.15PATIParsa Tiwari (2)  22:00-22:00-  21823.6 4498mNERChhapaiya Rd, Uttar Pradesh
28.16BNGYBahman Jyotia (2)  22:03-22:03-  21826.2 44100mNERGonda, Uttar Pradesh
28.17SNCSwami Narayan Chhapia (2)  22:08-22:08-  21829.4 44100mNERS Narayan Chpla, Uttar Pradesh
28.18MSWMaskanwa (2)  22:13-22:13-  21833.8 44103mNERChhapaiya Rd, Uttar Pradesh
28.19LKNRLakhpat Nagar (2)  22:25-22:25-  21842.7 44102mNERMankapur, Uttar Pradesh
28.20MURMankapur Junction (5)  22:32-22:32-  21847.8 44104mNERDistrict Gonda, Uttar Pradesh
28.21JLHIJhilahi (2)  22:41-22:41-  21854.4 44102mNERSH 9, Uttar Pradesh
28.22MOTGMotiganjX  22:50-22:50-  21860.7 44111mNERGonda, Uttar Pradesh
28.23BRCKBarua Chak (2)X  23:00-23:00-  21868.0 44107mNERBaruachak, Uttar Pradesh
29GDGonda Junction (3)  23:10+2:0923:20+2:0510m121875.747110mNERGonda 271001, Uttar Pradesh
29.1GDKGonda Kachahri (3)  23:26-23:26-  21880.6 47110mNERGonda, Uttar Pradesh
29.2KTHLKathola (2)  23:35-23:35-  21887.6 47106mNERGonda, Uttar Pradesh
29.3MIRMaijapur (2)X  23:42-23:42-  21893.3 47108mNERGonda, Uttar Pradesh
29.4KSRKasturi (2)  23:49-23:49-  21898.8 47108mNERkasturi Gonda, Uttar Pradesh
29.5CLJColonelGanj (2)  23:57-23:57-  21904.7 47108mNERGonda, Uttar Pradesh
29.6SUJSarju (2)X  00:07-00:07-  31912.4 47109mNERGonda, Uttar Pradesh
29.7JLDJarwal Road (2)  00:19-00:19-  31921.9 47112mNERBehraich, Uttar Pradesh
29.8GHTGhaghara Ghat (2)  00:24-00:24-  31926.0 47107mNERBahraich, Uttar Pradesh
29.9CKGChowka Ghat (2)  00:31-00:31-  31931.6 47107mNERBarabanki, Uttar Pradesh
29.10BUWBurhwal Junction (3)X  00:39-00:39-  31938.0 47119mNERBarabanki, Uttar Pradesh
29.11BURBindaura (2)  00:51-00:51-  31947.5 47125mNERbarabanki, Uttar Pradesh
29.12RFRRafinagar (2)  00:56-00:56-  31950.8 47124mNERbarabanki, Uttar Pradesh
29.13JBRJahangirabad Rj (2)  01:03-01:03-  31956.9 47125mNERJahangirabad, Uttar Pradesh
29.14BBKBarabanki Junction (4)  01:14-01:14-  31965.0 47122mNRPin-225001, Uttar Pradesh
29.15SFHSafedabad (3)X  01:23-01:23-  31972.7 47120mNRBarabanki, Uttar Pradesh
29.16JRRJugaur (1)X  01:28-01:28-  31976.0 47123mNRCanal Rd, Uttar Pradesh
29.17MLMalhaur (3)  01:35-01:35-  31981.6 47121mNRLucknow, Uttar Pradesh
30LKOLucknow Charbagh (9)X  01:50+2:1202:00+2:1210m531993.663123mNR226004, Uttar Pradesh
30.1LNWTLucknow West  02:02-02:02-  31995.2 63123mNRLucknow, Uttar Pradesh
30.2AMGAlamnagar (3)X  02:07-02:07-  32000.6 63126mNRLucknow, Uttar Pradesh
30.3KKJKakori (3)  02:14-02:14-  32008.1 63129mNRSH 25, Uttar Pradesh
30.4MLDMalihabad  02:23-02:23-  32017.8 63130mNRMalihabad, Uttar Pradesh
30.5DILDilawarnagarX  02:29-02:29-  32023.5 63133mNRSH 25, Uttar Pradesh
30.6RBDRahimabad  02:36-02:36-  32031.1 63132mNRSH 25, Uttar Pradesh
30.7SANSandila (3)  02:46-02:46-  32042.1 63132mNRSandila, Uttar Pradesh
30.8UTAUmar TaliX  02:51-02:51-  32047.4 63135mNRHardoi, Uttar Pradesh
30.9DLQDalelnagar  02:58-02:58-  32053.8 63136mNRSH 25, Uttar Pradesh
30.10BLMBalamu Junction (4)X  03:06-03:06-  32062.4 63139mNRBalamau, Uttar Pradesh
30.11BGHBaghauliX  03:14-03:14-  32071.1 63141mNRsharda nehar, Uttar Pradesh
30.12MSTMasit  03:21-03:21-  32078.1 63141mNRSH 25, Uttar Pradesh
30.13KARKarna  03:28-03:28-  32085.6 63143mNRHardoi, Uttar Pradesh
30.14HRIHardoi (5)X  03:37-03:37-  32095.4 63146mNRHardoi, Uttar Pradesh
30.15KUFKaurhaX  03:45-03:45-  32103.8 63148mNRSH 25, Uttar Pradesh
30.16BEGBehtagokulX  03:54-03:54-  32112.7 63152mNRBehtagokul, Uttar Pradesh
30.17TDPTodarpur  04:00-04:00-  32119.2 63147mNRSH 25, Uttar Pradesh
30.18SHRMSharmaX  04:02-04:02-  32121.7 63150mNRSH 25, Uttar Pradesh
30.19AJIAnjhi Shahabad  04:08-04:08-  32127.6 63148mNRAnjhi Shahabad, Uttar Pradesh
30.20AIGAlgawanX  04:14-04:14-  32133.9 63152mNRAlgawan, Uttar Pradesh
30.21KHKahiliya  04:22-04:22-  32142.4 63152mNRSH 25, Uttar Pradesh
30.22PRPMPt Ram Prasad Bismil  04:27-04:27-  32146.9 63154mNRState Highway 25, Uttar Pradesh
30.23ROZARoza Junction (4)  04:31-04:31-  32151.0 63156mNRShahjahanpur, Uttar Pradesh
30.24SXKShahjahanpur Court  04:37-04:37-  32157.5 63160mNRShahjahanpur, Uttar Pradesh
30.25SPNShahjahanpur Junction (3)X  04:38-04:38-  32158.4 63156mNRShahjahanpur, Uttar Pradesh
30.26BTRABanthra  04:46-04:46-  32166.9 63154mNRNH 24, Uttar Pradesh
30.27BHDHBahadurpur HaltX  04:51-04:51-  32172.4 63154mNRNH 24, Uttar Pradesh
30.28TLHTilhar  04:55-04:55-  32176.6 63163mNRTilhar, Uttar Pradesh
30.29MILAMilakpur Halt  04:58-04:58-  32180.2 63158mNRDhanela, Uttar Pradesh
30.30MKMiranpur Katra  05:04-05:04-  32186.3 63162mNRShahjahanpur, Uttar Pradesh
30.31KSRKKasrak HaltX  05:04-05:04-  32186.5 63162mNRKatra, Uttar Pradesh
30.32BLPUBilpurXO  05:11-05:11-  32193.5 63161mNRFatehganj, Uttar Pradesh
30.33TSATisuaX  05:18-05:18-  32200.5 63165mNRNational Highway 24, Uttar Pradesh
30.34PMRPitambarpur  05:26-05:26-  32209.1 63171mNRPitambarpur, Uttar Pradesh
30.35RYSRasuriyaX  05:35-05:35-  32218.5 63174mNRNH 24, Uttar Pradesh
30.36CHTIChanehti Junction  05:41-05:41-  32225.2 63168mNRBareilly, Uttar Pradesh
31BEBareilly Junction (4)X  05:45+2:1905:50+2:215m--32228.952174mNRBareilly, Uttar Pradesh
31.1BCBareilly City (4)  05:53-05:53-  32231.4 52171mNERBareilly, Uttar Pradesh
31.2CBJClutterbuckGanj  05:59-05:59-  32236.8 52172mNRBareilly, Uttar Pradesh
31.3PKRAParsa KheraX  06:05-06:05-  32241.9 52170mNRNH 24, Uttar Pradesh
31.4BTOBhitaura  06:11-06:11-  32247.2 52173mNRFatehganj Pashchimi, Uttar Pradesh
31.5DANDhanetaX  06:18-06:18-  32253.4 52174mNRNH 24, Uttar Pradesh
31.6NRSNagaria Sadat  06:27-06:27-  32260.6 52177mNRNagaria Sadat, Uttar Pradesh
31.7MILMilak  06:36-06:36-  32268.9 52180mNRMilak, Uttar Pradesh
31.8DUNDuganpur  06:43-06:43-  32274.7 52180mNRNH 24, Uttar Pradesh
31.9DAMDhamoraX  06:49-06:49-  32280.1 52183mNRNH 24, Uttar Pradesh
31.10SARShahzad NagarX  06:56-06:56-  32285.5 52186mNRNH 24, Uttar Pradesh
31.11RMURampur Junction (3)  07:03-07:03-  32292.0 52190mNRRampur, Uttar Pradesh
31.12MPHMundha PandeX  07:13-07:13-  32300.6 52191mNRNH 24, Uttar Pradesh
31.13DLPDalpatpur  07:21-07:21-  32307.1 52195mNRNH-24, Uttar Pradesh
31.14KGFEKathghar East  07:29-07:29-  32313.9 52194mNRJama Masjid Bridge Road, Uttar Pradesh
31.15KGFRKathghar Right Bank  07:29-07:29-  32314.2 52199mNRMoradabad, Uttar Pradesh
31.16KGFKathghar  07:31-07:31-  32315.5 52199mNRMoradabad, Uttar Pradesh
32MBMoradabad Junction (7)  07:35+2:1707:45+2:1810m--32319.266201mNRMoradabad, Uttar Pradesh
32.1MBWCMoradabad West  07:46-07:46-  32320.1 66195mNRMoradabad West, Uttar Pradesh
32.2HRHHarthala  07:50-07:50-  32324.7 66206mNRMoradabad, Uttar Pradesh
32.3AWPAghwanpur  07:55-07:55-  32330.4 66212mNRMoradabad, Uttar Pradesh
32.4MTBMatlabpur  08:04-08:04-  32340.0 66216mNRMoradabad, Uttar Pradesh
32.5KNTKanth  08:12-08:12-  32348.6 66221mNRKanth, Uttar Pradesh
32.6MWEMewa NawadaX  08:17-08:17-  32355.1 66221mNRSahaspur, Uttar Pradesh
32.7SEOSeohara  08:27-08:27-  32365.2 66224mNRSeohara, Uttar Pradesh
32.8CAJChakraj Mal  08:33-08:33-  32371.9 66229mNRNagina, Uttar Pradesh
32.9DPRDhampur  08:39-08:39-  32379.0 66236mNRDhampur, Uttar Pradesh
32.10HBWHabibwalaX  08:44-08:44-  32384.3 66239mNRNagina, Uttar Pradesh
32.11PNIPurainiX  08:49-08:49-  32389.9 66246mNRDhampur, Uttar Pradesh
32.12NGGNagina (3)O  08:54-08:54-  32395.7 66247mNRNagina, Uttar Pradesh
32.13BEKBundki  09:03-09:03-  32405.6 66255mNRNagina, Uttar Pradesh
32.14MSDRMurshadpurO  09:06-09:06-  32409.1 66258mNRNagina, Uttar Pradesh
32.15NBDNajibabad Junction (3)  09:15-09:15-  32418.2 66269mNRNajibabad, Uttar Pradesh
32.16FZLFazalpur (2)  09:25-09:25-  32429.2 66256mNRState Highway 49, Uttar Pradesh
32.17CNKChandok (2)  09:31-09:31-  32436.1 66257mNRChandok, Uttar Pradesh
32.18BLWBalawali (2)  09:37-09:37-  32443.0 66242mNRNational Highway 119, Uttar Pradesh
32.19RSIRaisi  09:42-09:42-  32448.7 66231mNRLaksar, Uttarakhand
32.20LRJLaksar Junction (4)O  09:52-09:52-  32460.1 66238mNRLaksar, Uttarakhand
32.21LRJCLaksar North CabinX  09:54-09:54-  32462.2 66238mNRMain Bazar Road, Uttarakhand
32.22DSNIDausni (2)  09:57-09:57-  32465.1 66244mNRLaksar, Uttarakhand
32.23LDRLandaura (2)  10:01-10:01-  32470.1 66261mNRHaridwar, Uttarakhand
32.24DNRADhandhera (2)  10:06-10:06-  32475.1 66267mNRRoorkee - 247667, Uttarakhand
32.25RKRoorkee (3)  10:09-10:09-  32477.9 66264mNRRoorkee - 247667, Uttarakhand
32.26IQBIqbalpur  10:15-10:15-  32485.4 66267mNRNational Highway 73, Uttar Pradesh
32.27CDLChodialaX  10:21-10:21-  32491.9 66270mNRMDR 163W, Uttar Pradesh
32.28SNKESunehti Kharkhari (2)XO  10:26-10:26-  32497.5 66216mNRSunehti Kharkhr, Uttar Pradesh
32.29BAEBaliakheri  10:31-10:31-  32502.6 66274mNRSaharanpur, Uttar Pradesh
32.30HNCHindan Cabin  10:34-10:34-  32506.4 66276mNRMDR 163W, Uttar Pradesh
33SRESaharanpur Junction (6)  10:40+2:3610:50+2:3410m432512.665276mNRSaharanpur, Uttar Pradesh
33.1PKYPilkhani (2)  10:57-10:57-  32520.3 65277mNRSaharanpur, Uttar Pradesh
33.2SSWSarsawa (2)X  11:02-11:02-  32525.9 65269mNRSaharanpur, Uttar Pradesh
33.3KNZKalanour (2)  11:12-11:12-  32536.3 65272mNRNational Highway 73, Haryana
33.4JUDYamunanagar-Jagadhri (3)X  11:18-11:18-  32542.7 65275mNRYamunanagar, Haryana
33.5JUDWJagadhri Workshop (2)  11:22-11:22-  32547.7 65280mNRRailway Workshop Road, Haryana
33.6DZPDarazpur (2)X  11:27-11:27-  32552.4 65276mNRYamunanagar, Haryana
33.7MFBMustafabad (2)  11:34-11:34-  32560.1 65281mNRNational Highway 73, Haryana
33.8RAABarara (2)  11:42-11:42-  32569.0 65279mNRBarara, Haryana
33.9TDWTandwal (2)X  11:47-11:47-  32574.3 65279mNRState Highway 31, Haryana
33.10KESKesri (2)X  11:53-11:53-  32580.6 65275mNRAmbala, Haryana
33.11DOKYDukheri (2)  11:58-11:58-  32586.4 65275mNRDevsthali Rd, Haryana
34UMBAmbala Cantt. Junction (7)X  12:05+2:1012:10+2:085m132593.845278mNRAmbala 133001, Haryana
34.1DKTDhulkotX  12:21-12:21-  32601.6 45275mNRAmbala City, Haryana
34.2LLULalruX  12:34-12:34-  32611.8 45282mNRLalru, Punjab
34.3DHPRDappar (2)  12:55-12:55-  32627.2 45299mNRNational Highway 22, Punjab
34.4GHGGhagghar (1)  12:58-12:58-  32629.2 45301mNRnear silver city. distt. mohali, Punjab
35CDGChandigarh Junction (5)  13:10+1:55-432638.4-334mNRDarua, Chandigarh
Scroll to Top
Scroll to Bottom